Simultaneous Nadir Overpasses (SNOs) Predictions

Prediction of SNOs between AQUA and NOAA-19 Satellite Orbit:

Table of predicted SNOs for the next 14.0 days since TLE Epoch: 12/12/2015
Index Date (AQUA) Time (AQUA) Lat,Lon (AQUA) SZA (AQUA ) Date (NOAA-19) Time (NOAA-19) Lat,Lon (NOAA-19) SZA (NOAA-19 ) Distance(km) Time Diff (sec)
1 12/13/2015 23:53:58 -80.60, -34.82 74.68 12/13/2015 23:53:35 -80.60, -34.67 74.68 2.78 23
2 12/14/2015 00:43:23 80.56, 133.33 105.25 12/14/2015 00:44:29 80.56, 133.43 105.22 1.89 66
3 12/16/2015 05:27:41 80.60, 61.81 105.47 12/16/2015 05:27:43 80.60, 61.78 105.47 0.85 2
4 12/18/2015 10:11:59 80.65, -9.81 105.66 12/18/2015 10:10:57 80.65, -9.92 105.70 1.98 62
5 12/18/2015 11:01:24 -80.60, 158.36 74.43 12/18/2015 11:02:00 -80.59, 158.50 74.46 2.60 36
6 12/20/2015 15:45:41 -80.63, 87.01 74.31 12/20/2015 15:45:13 -80.62, 87.18 74.32 3.17 28
7 12/20/2015 16:35:06 80.59,-104.91 105.62 12/20/2015 16:36:07 80.59,-104.94 105.61 0.69 61
8 12/22/2015 21:19:23 80.62,-176.37 105.72 12/22/2015 21:19:20 80.62,-176.34 105.72 0.55 3
9 12/25/2015 02:03:40 80.67, 112.07 105.80 12/25/2015 02:02:33 80.65, 112.22 105.80 3.01 67




NCC Satellite Simultaneous Nadir Overpasses (SNOs) Prediction Service
